DMC3-FM2

Last updated on Tue Sep 16 2025 00:02:37 GMT+0000 (Coordinated Universal Time)

1 40716U 15032B 25258.60878802 .00000701 00000+0 87771-4 0 9991 2 40716 97.6883 130.3521 0004859 236.1728 123.9025 14.85202532549148
UTC large
Height (km)
Speed (km/s)
/
Latitude / Longitude
Inclination (degrees)
Orbital Period (minutes)
Azimuth
Elevation
Range (km)
Doppler Factor

Next 0 passes for location: London (51.5072 / 0.1276)

Sorry there are no passes over London.